Denver, CO

11:41 PM MDT on October 18, 2017 (GMT -0600)
Front Range

Weather History for KFTG - December, 2012

Change the Weather History Date:

Thursday, December 27, 2012

  Actual Average (KBKF) Record (KBKF)
Temperature  
Mean Temperature 18 °F -  
Max Temperature 30 °F 42 °F 60 °F (1996)
Min Temperature 6 °F 21 °F 4 °F (2014)
Degree Days  
Heating Degree Days 47    
Moisture  
Dew Point 12 °F    
Average Humidity 85    
Maximum Humidity 93    
Minimum Humidity 69    
Precipitation  
Precipitation 0.00 in - - ()
Sea Level Pressure  
Sea Level Pressure 29.69 in    
Wind  
Wind Speed 8 mph (SW)    
Max Wind Speed 12 mph    
Max Gust Speed -    
Visibility 9 miles    
Events Snow    
Averages and records for this station are not official NWS values.
T = Trace of Precipitation, MM = Missing Value Source: NWS Daily Summary

Daily Weather History Graph

Daily Weather History Graph

Search for Another Location

Airport or City:

Trip Planner

Search our weather history database for the weather conditions in past years. The results will help you decide how hot, cold, wet, or windy it might be!

Date:

Astronomy

Dec. 27, 2012 Rise Set
Actual Time 7:18 AM MST 4:40 PM MST
Civil Twilight 6:48 AM MST 5:11 PM MST
Nautical Twilight 6:14 AM MST 5:45 PM MST
Astronomical Twilight 5:41 AM MST 6:17 PM MST
Moon 4:26 PM MST (12/27) 6:31 AM MST (12/27)
Length of Visible Light 10h 23m
Length of Day
9h 22m
Full, 100% of the Moon is Illuminated
Dec 27
Full
Dec 28
Full
Jan 4
Last Quarter
Jan 11
New
Jan 18
First Quarter

Hourly Weather History & Observations

Time (MST) Temp. Windchill Dew Point Humidity Pressure Visibility Wind Dir Wind Speed Gust Speed Precip Events Conditions
12:02 AM 8.6 °F -1.3 °F 5.0 °F 85% 29.61 in 10.0 mi WSW 5.8 mph - N/A   Scattered Clouds
12:22 AM 8.6 °F -4.7 °F 5.0 °F 85% 29.60 in 7.0 mi WSW 9.2 mph - N/A   Clear
12:43 AM 8.6 °F -4.7 °F 3.2 °F 79% 29.60 in 7.0 mi WSW 9.2 mph - N/A   Clear
1:02 AM 6.8 °F -6.9 °F 3.2 °F 85% 29.60 in 7.0 mi West 9.2 mph - N/A   Clear
1:22 AM 6.8 °F -8.6 °F 3.2 °F 85% 29.60 in 7.0 mi West 11.5 mph - N/A   Clear
1:43 AM 8.6 °F -6.3 °F 5.0 °F 85% 29.60 in 7.0 mi West 11.5 mph - N/A   Clear
2:03 AM 6.8 °F -7.8 °F 3.2 °F 85% 29.61 in 7.0 mi West 10.4 mph - N/A   Clear
2:23 AM 8.6 °F -5.5 °F 5.0 °F 85% 29.62 in 7.0 mi West 10.4 mph - N/A   Clear
3:23 AM 10.4 °F -2.4 °F 6.8 °F 85% 29.61 in 7.0 mi WSW 9.2 mph - N/A   Clear
3:43 AM 10.4 °F -2.4 °F 8.6 °F 92% 29.61 in 7.0 mi WSW 9.2 mph - N/A   Clear
4:03 AM 12.2 °F 0.7 °F 8.6 °F 85% 29.61 in 7.0 mi WSW 8.1 mph - N/A   Clear
4:23 AM 10.4 °F -1.5 °F 8.6 °F 92% 29.61 in 7.0 mi WSW 8.1 mph - N/A   Clear
4:43 AM 14.0 °F 2.9 °F 10.4 °F 86% 29.61 in 7.0 mi WSW 8.1 mph - N/A   Clear
5:03 AM 15.8 °F 5.1 °F 14.0 °F 93% 29.61 in 7.0 mi WSW 8.1 mph - N/A   Clear
5:23 AM 15.8 °F 4.2 °F 12.2 °F 86% 29.61 in 7.0 mi SW 9.2 mph - N/A   Clear
5:42 AM 15.8 °F 4.2 °F 14.0 °F 93% 29.61 in 7.0 mi SW 9.2 mph - N/A   Clear
6:02 AM 17.6 °F 5.7 °F 14.0 °F 86% 29.61 in 10.0 mi SW 10.4 mph - N/A   Scattered Clouds
6:22 AM 19.4 °F 7.9 °F 15.8 °F 86% 29.61 in 10.0 mi SSW 10.4 mph - N/A   Scattered Clouds
6:43 AM 17.6 °F 6.4 °F 14.0 °F 86% 29.62 in 10.0 mi SSW 9.2 mph - N/A   Clear
6:57 AM 19.4 °F 8.6 °F 15.8 °F 86% 29.62 in 10.0 mi SSW 9.2 mph - N/A   Clear
9:55 AM 23.0 °F 17.0 °F 19.4 °F 86% 29.68 in 20.0 mi SSE 4.6 mph - N/A   Mostly Cloudy
10:50 AM 30.2 °F 23.4 °F 21.2 °F 69% 29.70 in 20.0 mi East 6.9 mph - N/A   Mostly Cloudy
11:50 AM 28.4 °F 19.7 °F 21.2 °F 74% 29.68 in 20.0 mi ENE 9.2 mph - N/A   Mostly Cloudy
1:47 PM 24.8 °F 15.3 °F 19.4 °F 80% 29.68 in 7.0 mi East 9.2 mph - N/A   Mostly Cloudy
2:50 PM 23.0 °F 14.7 °F 15.8 °F 74% 29.71 in 10.0 mi ENE 6.9 mph - N/A   Mostly Cloudy
4:56 PM 19.4 °F - 15.8 °F 86% 29.76 in 10.0 mi Calm Calm - N/A   Overcast
5:50 PM 21.2 °F - 15.8 °F 80% 29.79 in 10.0 mi Calm Calm - N/A   Overcast
7:30 PM 21.2 °F - 17.6 °F 86% 29.83 in 3.0 mi Calm Calm - N/A Snow Snow
7:55 PM 19.4 °F - 17.6 °F 93% 29.83 in 3.0 mi Calm Calm - N/A Snow Snow
8:46 PM 19.4 °F - 17.6 °F 93% 29.83 in 10.0 mi Calm Calm - N/A   Overcast
9:23 PM 17.6 °F - 15.8 °F 93% 29.84 in 10.0 mi Calm Calm - N/A   Mostly Cloudy
9:43 PM 17.6 °F 10.7 °F 14.0 °F 86% 29.83 in 10.0 mi SSW 4.6 mph - N/A   Scattered Clouds
10:03 PM 15.8 °F 8.6 °F 14.0 °F 93% 29.84 in 10.0 mi SSW 4.6 mph - N/A   Clear
10:42 PM 19.4 °F 9.5 °F 15.8 °F 86% 29.85 in 10.0 mi SSW 8.1 mph - N/A   Clear
11:03 PM 19.4 °F 10.4 °F 14.0 °F 80% 29.85 in 10.0 mi SSW 6.9 mph - N/A   Clear
11:23 PM 19.4 °F 9.5 °F 14.0 °F 80% 29.85 in 10.0 mi SW 8.1 mph - N/A   Clear
11:43 PM 17.6 °F 7.3 °F 14.0 °F 86% 29.85 in 10.0 mi SW 8.1 mph - N/A   Clear